Location: Berlin
(52.5171°N, 13.3759°E)
Time: 03:46:08
(UTC+02:00)

ISS - Pass Details

Date: 07 January 2018
Orbit: 401 x 409 km, 51.6° (Epoch: 20 August)

Event Time Altitude Azimuth Distance (km) Brightness Sun altitude
Exits shadow 07:34:40 - 277° (W) 1,816 -1.1 -6.0°
Reaches altitude 10° 07:35:28 10° 273° (W) 1,512 -1.5 -5.9°
Maximum altitude 07:38:36 36° 205° (SSW) 693 -2.6 -5.5°
Drops below altitude 10° 07:41:46 10° 137° (SE) 1,514 0.6 -5.1°
Sets 07:43:57 0° 129° (SE) 2,380 2.6 -4.8°
